TimeMST,TemperatureF,Dew PointF,Humidity,Sea Level PressureIn,VisibilityMPH,Wind Direction,Wind SpeedMPH,Gust SpeedMPH,PrecipitationIn,Events,Conditions,WindDirDegrees,DateUTC
12:53 AM,34.0,8.1,34,30.12,10.0,NW,5.8,-,N/A,,Clear,320,2013-02-25 07:53:00
1:53 AM,33.1,7.0,34,30.14,10.0,Variable,4.6,-,N/A,,Clear,0,2013-02-25 08:53:00
2:53 AM,32.0,8.1,37,30.13,10.0,WNW,6.9,-,N/A,,Clear,300,2013-02-25 09:53:00
3:53 AM,30.0,9.0,41,30.15,10.0,Calm,Calm,-,N/A,,Clear,0,2013-02-25 10:53:00
4:53 AM,28.0,8.1,43,30.16,10.0,Calm,Calm,-,N/A,,Clear,0,2013-02-25 11:53:00
5:53 AM,26.1,8.1,47,30.19,10.0,Calm,Calm,-,N/A,,Clear,0,2013-02-25 12:53:00
6:53 AM,26.1,8.1,47,30.21,10.0,SE,6.9,-,N/A,,Clear,140,2013-02-25 13:53:00
7:53 AM,30.0,8.1,40,30.22,10.0,SE,5.8,-,N/A,,Clear,140,2013-02-25 14:53:00
8:53 AM,33.1,9.0,37,30.22,10.0,Calm,Calm,-,N/A,,Clear,0,2013-02-25 15:53:00
9:53 AM,36.0,8.1,31,30.20,10.0,Calm,Calm,-,N/A,,Clear,0,2013-02-25 16:53:00
10:53 AM,37.9,8.1,29,30.19,10.0,Variable,4.6,-,N/A,,Clear,0,2013-02-25 17:53:00
11:53 AM,39.9,7.0,26,30.16,10.0,East,5.8,-,N/A,,Clear,90,2013-02-25 18:53:00
12:53 PM,42.1,7.0,24,30.11,10.0,NE,3.5,-,N/A,,Clear,50,2013-02-25 19:53:00
1:53 PM,45.0,8.1,22,30.06,10.0,North,6.9,-,N/A,,Clear,360,2013-02-25 20:53:00
2:53 PM,46.9,8.1,21,30.03,10.0,NE,5.8,-,N/A,,Clear,40,2013-02-25 21:53:00
3:53 PM,48.0,6.1,18,30.00,10.0,NE,5.8,-,N/A,,Clear,40,2013-02-25 22:53:00
4:53 PM,48.0,5.0,17,29.99,10.0,Calm,Calm,-,N/A,,Clear,0,2013-02-25 23:53:00
5:53 PM,46.0,6.1,20,29.98,10.0,NNE,4.6,-,N/A,,Clear,20,2013-02-26 00:53:00
6:53 PM,43.0,5.0,21,29.97,10.0,ENE,3.5,-,N/A,,Clear,60,2013-02-26 01:53:00
7:53 PM,39.9,6.1,25,29.96,10.0,Calm,Calm,-,N/A,,Clear,0,2013-02-26 02:53:00
8:53 PM,37.9,6.1,27,29.95,10.0,Calm,Calm,-,N/A,,Clear,0,2013-02-26 03:53:00
9:53 PM,36.0,7.0,30,29.94,5.0,Calm,Calm,-,N/A,,Haze,0,2013-02-26 04:53:00
10:53 PM,36.0,7.0,30,29.94,10.0,West,3.5,-,N/A,,Clear,280,2013-02-26 05:53:00
11:53 PM,39.9,5.0,23,29.94,10.0,West,6.9,-,N/A,,Clear,280,2013-02-26 06:53:00